DW0117 Weather Reports


time (UTC)temp
C
wind
direction
speed
KPH
gust
KPH
rain 1hr
cm
rain 24hr
cm
rain mn
cm
humidity
%
barometer
mb
20260506185956 22 237 0.0 6.4 0.00 0.00 0.00 51 1018.0
20260506185455 22 245 0.0 8.0 0.00 0.00 0.00 51 1017.9
20260506184956 21 253 0.0 8.0 0.00 0.00 0.00 51 1017.9
20260506184455 21 258 0.0 4.8 0.00 0.00 0.00 50 1018.0
20260506183955 21 249 0.0 11.3 0.00 0.00 0.00 50 1018.0
20260506183456 21 247 0.0 11.3 0.00 0.00 0.00 50 1018.1
20260506182455 21 246 0.0 4.8 0.00 0.00 0.00 53 1018.1
20260506181956 20 247 0.0 4.8 0.00 0.00 0.00 53 1018.2
20260506181455 20 249 0.0 4.8 0.00 0.00 0.00 52 1018.1
20260506180956 20 0 0.0 0.0 0.00 0.00 0.00 52 1018.2
20260506180455 20 0 0.0 0.0 0.00 0.00 0.00 52 1018.3
20260506175956 20 0 0.0 0.0 0.00 0.00 0.00 51 1018.2
20260506175455 20 246 0.0 1.6 0.00 0.00 0.00 53 1018.3
20260506174956 20 245 0.0 4.8 0.00 0.00 0.00 54 1018.3
20260506174455 20 247 0.0 4.8 0.00 0.00 0.00 54 1018.3
20260506173956 20 248 0.0 4.8 0.00 0.00 0.00 56 1018.3
20260506173455 19 247 0.0 4.8 0.00 0.00 0.00 56 1018.3
20260506172955 19 252 0.0 4.8 0.00 0.00 0.00 57 1018.3
20260506172456 19 252 0.0 4.8 0.00 0.00 0.00 58 1018.5
20260506171956 18 0 0.0 0.0 0.00 0.00 0.00 59 1018.5
20260506171455 18 227 0.0 6.4 0.00 0.00 0.00 59 1018.5
20260506170956 18 227 0.0 6.4 0.00 0.00 0.00 60 1018.5
20260506165956 18 0 0.0 0.0 0.00 0.00 0.00 64 1018.6
20260506164955 17 0 0.0 0.0 0.00 0.00 0.00 65 1018.8
20260506164456 17 0 0.0 0.0 0.00 0.00 0.00 68 1018.6
20260506163955 16 0 0.0 0.0 0.00 0.00 0.00 71 1018.7
20260506163455 16 0 0.0 0.0 0.00 0.00 0.00 73 1018.8
20260506162455 15 0 0.0 0.0 0.00 0.00 0.00 77 1018.8
20260506161956 15 0 0.0 0.0 0.00 0.00 0.00 78 1018.8
20260506160955 14 0 0.0 0.0 0.00 0.00 0.00 82 1018.9
20260506160455 14 0 0.0 0.0 0.00 0.00 0.00 84 1019.0
20260506155956 13 0 0.0 0.0 0.00 0.00 0.00 85 1019.0
20260506155455 13 0 0.0 0.0 0.00 0.00 0.00 87 1019.0
20260506154456 13 0 0.0 0.0 0.00 0.00 0.00 90 1019.1
20260506153955 12 0 0.0 0.0 0.00 0.00 0.00 91 1019.2
20260506153455 12 0 0.0 0.0 0.00 0.00 0.00 92 1019.2
20260506152956 12 0 0.0 0.0 0.00 0.00 0.00 93 1019.2
20260506152455 12 0 0.0 0.0 0.00 0.00 0.00 93 1019.1
20260506151956 12 0 0.0 0.0 0.00 0.00 0.00 94 1019.2
20260506151456 11 0 0.0 0.0 0.00 0.00 0.00 94 1019.2
20260506150455 11 0 0.0 0.0 0.00 0.00 0.00 94 1019.3
20260506145956 11 0 0.0 0.0 0.00 0.00 0.00 94 1019.3
20260506144956 10 0 0.0 0.0 0.00 0.00 0.00 94 1019.3
20260506144456 10 0 0.0 0.0 0.00 0.00 0.00 94 1019.3
20260506143956 10 0 0.0 0.0 0.00 0.00 0.00 94 1019.3
20260506143456 10 0 0.0 0.0 0.00 0.00 0.00 94 1019.3
20260506142956 10 0 0.0 0.0 0.00 0.00 0.00 94 1019.3
20260506142456 10 0 0.0 0.0 0.00 0.00 0.00 94 1019.2
20260506141956 10 0 0.0 0.0 0.00 0.00 0.00 94 1019.3
20260506141456 10 0 0.0 0.0 0.00 0.00 0.00 94 1019.3
20260506140955 10 0 0.0 0.0 0.00 0.00 0.00 93 1019.3
20260506140456 9 0 0.0 0.0 0.00 0.00 0.00 93 1019.3
20260506135956 9 0 0.0 0.0 0.00 0.00 0.00 94 1019.2
20260506135455 9 0 0.0 0.0 0.00 0.00 0.00 93 1019.1
20260506134956 9 0 0.0 0.0 0.00 0.00 0.00 93 1019.1
20260506134456 9 0 0.0 0.0 0.00 0.00 0.00 93 1018.9
20260506133956 9 0 0.0 0.0 0.00 0.00 0.00 93 1018.9
20260506133455 9 0 0.0 0.0 0.00 0.00 0.00 93 1018.8
20260506132956 9 0 0.0 0.0 0.00 0.00 0.00 93 1018.7
20260506132456 9 0 0.0 0.0 0.00 0.00 0.00 93 1018.6
20260506131456 9 0 0.0 0.0 0.00 0.00 0.00 93 1018.5
20260506130955 9 0 0.0 0.0 0.00 0.00 0.00 93 1018.5
20260506130457 9 0 0.0 0.0 0.00 0.00 0.00 92 1018.4
20260506125956 9 0 0.0 0.0 0.00 0.00 0.00 92 1018.4
20260506125456 9 0 0.0 0.0 0.00 0.00 0.00 92 1018.4
20260506124455 9 0 0.0 0.0 0.00 0.00 0.00 92 1018.3
20260506123456 10 0 0.0 0.0 0.00 0.00 0.00 92 1018.2
20260506122956 10 0 0.0 0.0 0.00 0.00 0.00 92 1018.1
20260506121955 10 0 0.0 0.0 0.00 0.00 0.00 92 1018.2
20260506121456 10 0 0.0 0.0 0.00 0.00 0.00 92 1018.1
20260506120956 10 0 0.0 0.0 0.00 0.00 0.00 92 1018.2
20260506115456 10 0 0.0 0.0 0.00 0.00 0.00 92 1018.1
20260506114955 10 0 0.0 0.0 0.00 0.00 0.00 92 1018.1
20260506114456 10 0 0.0 0.0 0.00 0.00 0.00 92 1018.1
20260506113956 10 0 0.0 0.0 0.00 0.00 0.00 92 1018.0
20260506113456 10 0 0.0 0.0 0.00 0.00 0.00 92 1018.0
20260506112956 10 0 0.0 0.0 0.00 0.00 0.00 91 1018.0
20260506112455 10 0 0.0 0.0 0.00 0.00 0.00 91 1018.0
20260506111956 11 0 0.0 0.0 0.00 0.00 0.00 92 1017.8
20260506111456 11 0 0.0 0.0 0.00 0.00 0.00 92 1017.7
20260506110956 11 0 0.0 0.0 0.00 0.00 0.00 91 1017.8
20260506110456 11 0 0.0 0.0 0.00 0.00 0.00 91 1017.7
20260506105456 11 0 0.0 0.0 0.00 0.00 0.00 91 1017.6
20260506104456 11 0 0.0 0.0 0.00 0.00 0.00 91 1017.5
20260506103956 11 0 0.0 0.0 0.00 0.00 0.00 91 1017.5
20260506103456 11 0 0.0 0.0 0.00 0.00 0.00 91 1017.6
20260506102956 11 0 0.0 0.0 0.00 0.00 0.00 91 1017.3
20260506102457 11 0 0.0 0.0 0.00 0.00 0.00 91 1017.4
20260506101956 11 0 0.0 0.0 0.00 0.00 0.00 91 1017.4
20260506101456 11 0 0.0 0.0 0.00 0.00 0.00 91 1017.4
20260506100956 11 0 0.0 0.0 0.00 0.00 0.00 91 1017.5
20260506100456 11 0 0.0 0.0 0.00 0.00 0.00 91 1017.5
20260506095956 11 0 0.0 0.0 0.00 0.00 0.00 91 1017.3
20260506095456 11 0 0.0 0.0 0.00 0.00 0.00 91 1017.3
20260506094956 11 0 0.0 0.0 0.00 0.00 0.00 91 1017.3
20260506094456 11 0 0.0 0.0 0.00 0.00 0.00 91 1017.3
20260506093956 11 0 0.0 0.0 0.00 0.00 0.00 91 1017.4
20260506092956 11 0 0.0 0.0 0.00 0.00 0.00 91 1017.3
20260506092456 11 0 0.0 0.0 0.00 0.00 0.00 91 1017.3
20260506091956 12 0 0.0 0.0 0.00 0.00 0.00 91 1017.3
20260506091456 12 0 0.0 0.0 0.00 0.00 0.00 90 1017.3
20260506090956 12 0 0.0 0.0 0.00 0.00 0.00 90 1017.4
20260506085956 12 0 0.0 0.0 0.00 0.00 0.00 90 1017.5
20260506085457 12 0 0.0 0.0 0.00 0.00 0.00 90 1017.4
20260506084956 12 0 0.0 0.0 0.00 0.00 0.00 89 1017.4
20260506084457 12 0 0.0 0.0 0.00 0.00 0.00 89 1017.4
20260506083956 12 0 0.0 0.0 0.00 0.00 0.00 90 1017.4
20260506083456 12 0 0.0 0.0 0.00 0.00 0.00 90 1017.3
20260506082957 12 0 0.0 0.0 0.00 0.00 0.00 89 1017.4
20260506082456 12 0 0.0 0.0 0.00 0.00 0.00 89 1017.4
20260506081456 12 0 0.0 0.0 0.00 0.00 0.00 89 1017.4
20260506080956 12 0 0.0 0.0 0.00 0.00 0.00 89 1017.3
20260506080457 12 0 0.0 0.0 0.00 0.00 0.00 89 1017.3
20260506073457 12 0 0.0 0.0 0.00 0.00 0.00 89 1017.2
20260506072956 12 0 0.0 0.0 0.00 0.00 0.00 89 1017.2
20260506072456 12 0 0.0 0.0 0.00 0.00 0.00 89 1017.3
20260506071956 12 0 0.0 0.0 0.00 0.00 0.00 89 1017.1
20260506070956 12 0 0.0 0.0 0.00 0.00 0.00 89 1016.9
20260506070457 12 0 0.0 0.0 0.00 0.00 0.00 89 1016.9
20260506062456 12 0 0.0 0.0 0.00 0.00 0.00 89 1016.7
20260506061457 12 0 0.0 0.0 0.00 0.00 0.00 88 1016.6
20260506060957 12 0 0.0 0.0 0.00 0.00 0.00 88 1016.6
20260506060456 12 0 0.0 0.0 0.00 0.00 0.00 88 1016.6
20260506050957 13 0 0.0 0.0 0.00 0.00 0.00 85 1015.8
20260506044457 13 0 0.0 0.0 0.00 0.00 0.00 84 1015.7
20260506043957 14 0 0.0 0.0 0.00 0.00 0.00 84 1015.6
20260506042957 14 0 0.0 0.0 0.00 0.00 0.00 84 1015.6
20260506041957 14 0 0.0 0.0 0.00 0.00 0.00 83 1015.4
20260506041457 14 0 0.0 0.0 0.00 0.00 0.00 83 1015.2
20260506040957 14 0 0.0 0.0 0.00 0.00 0.00 82 1015.2
20260506040457 15 0 0.0 0.0 0.00 0.00 0.00 82 1015.2
20260506035957 15 0 0.0 0.0 0.00 0.00 0.00 81 1015.2
20260506034957 15 0 0.0 0.0 0.00 0.00 0.00 80 1015.1
20260506034457 15 0 0.0 0.0 0.00 0.00 0.00 80 1015.0
20260506033957 15 0 0.0 0.0 0.00 0.00 0.00 79 1014.9
20260506033457 15 0 0.0 0.0 0.00 0.00 0.00 79 1014.8
20260506032958 16 0 0.0 0.0 0.00 0.00 0.00 79 1014.7
20260506032457 16 0 0.0 0.0 0.00 0.00 0.00 78 1014.5
20260506031957 16 0 0.0 0.0 0.00 0.00 0.00 78 1014.4
20260506031457 16 0 0.0 0.0 0.00 0.00 0.00 78 1014.3
20260506030957 16 0 0.0 0.0 0.00 0.00 0.00 77 1014.3
20260506030457 16 0 0.0 0.0 0.00 0.00 0.00 76 1014.3
20260506025957 16 0 0.0 0.0 0.00 0.00 0.00 76 1014.3
20260506025457 16 0 0.0 0.0 0.00 0.00 0.00 75 1014.2
20260506024957 16 0 0.0 0.0 0.00 0.00 0.00 75 1014.2
20260506024458 16 0 0.0 0.0 0.00 0.00 0.00 75 1014.1
20260506023957 16 0 0.0 0.0 0.00 0.00 0.00 74 1014.1
20260506023457 16 0 0.0 0.0 0.00 0.00 0.00 73 1014.0
20260506022458 17 0 0.0 0.0 0.00 0.00 0.00 73 1013.8
20260506021957 17 0 0.0 0.0 0.00 0.00 0.00 72 1013.9
20260506021456 17 0 0.0 0.0 0.00 0.00 0.00 71 1013.9
20260506020957 17 0 0.0 0.0 0.00 0.00 0.00 71 1013.7
20260506020457 17 0 0.0 0.0 0.00 0.00 0.00 70 1013.7
20260506015957 17 0 0.0 0.0 0.00 0.00 0.00 70 1013.7
20260506014957 17 0 0.0 0.0 0.00 0.00 0.00 71 1013.6
20260506014457 17 0 0.0 0.0 0.00 0.00 0.00 70 1013.6
20260506013958 17 0 0.0 0.0 0.00 0.00 0.00 70 1013.6
20260506013457 17 0 0.0 0.0 0.00 0.00 0.00 71 1013.6
20260506012957 17 0 0.0 0.0 0.00 0.00 0.00 70 1013.6
20260506011957 17 0 0.0 0.0 0.00 0.00 0.00 68 1013.7
20260506011457 17 0 0.0 0.0 0.00 0.00 0.00 68 1013.7
20260506010956 18 0 0.0 0.0 0.00 0.00 0.00 66 1013.7
20260506010457 18 0 0.0 0.0 0.00 0.00 0.00 66 1013.6
20260506005957 18 0 0.0 0.0 0.00 0.00 0.00 68 1013.5
20260506004957 17 0 0.0 0.0 0.00 0.00 0.00 69 1013.6
20260506004457 17 0 0.0 0.0 0.00 0.00 0.00 71 1013.7
20260506003958 17 0 0.0 0.0 0.00 0.00 0.00 71 1013.7
20260506003457 17 0 0.0 0.0 0.00 0.00 0.00 71 1013.7
20260506002958 17 0 0.0 0.0 0.00 0.00 0.00 72 1013.7
20260506002457 17 0 0.0 0.0 0.00 0.00 0.00 72 1013.7
20260506001957 16 0 0.0 0.0 0.00 0.00 0.00 73 1013.7
20260506001457 16 0 0.0 0.0 0.00 0.00 0.00 72 1013.8
20260506000957 16 0 0.0 0.0 0.00 0.00 0.00 73 1013.7
20260506000457 16 0 0.0 0.0 0.00 0.00 0.00 76 1013.7
20260505235457 16 0 0.0 0.0 0.00 0.00 0.00 80 1013.8
20260505234958 15 0 0.0 0.0 0.00 0.00 0.00 81 1013.9
20260505234457 15 0 0.0 0.0 0.00 0.00 0.00 83 1014.0
20260505233457 15 0 0.0 0.0 0.00 0.00 0.00 84 1014.2
20260505232957 15 0 0.0 0.0 0.00 0.00 0.00 85 1014.3
20260505232457 15 0 0.0 0.0 0.00 0.00 0.00 84 1014.3
20260505231958 15 0 0.0 0.0 0.00 0.00 0.00 84 1014.4
20260505231457 15 0 0.0 0.0 0.00 0.00 0.00 83 1014.5
20260505230957 15 0 0.0 0.0 0.00 0.00 0.00 82 1014.6
20260505230457 15 0 0.0 0.0 0.00 0.00 0.00 81 1014.5
20260505225957 15 0 0.0 0.0 0.00 0.00 0.00 81 1014.5
20260505225457 15 0 0.0 0.0 0.00 0.00 0.00 81 1014.6
20260505224957 15 0 0.0 0.0 0.00 0.00 0.00 81 1014.5
20260505224457 15 0 0.0 0.0 0.00 0.00 0.00 82 1014.4
20260505223957 15 0 0.0 0.0 0.00 0.00 0.00 81 1014.4
20260505223457 16 0 0.0 0.0 0.00 0.00 0.00 81 1014.4
20260505222957 16 0 0.0 0.0 0.00 0.00 0.00 79 1014.4
20260505222458 16 0 0.0 0.0 0.00 0.00 0.00 78 1014.4
20260505221957 16 0 0.0 0.0 0.00 0.00 0.00 77 1014.4
20260505221458 16 0 0.0 0.0 0.00 0.00 0.00 77 1014.4
20260505220957 16 0 0.0 0.0 0.00 0.00 0.00 76 1014.4
20260505220458 16 0 0.0 0.0 0.00 0.00 0.00 75 1014.3
20260505215957 16 0 0.0 0.0 0.00 0.00 0.00 75 1014.4
20260505215457 16 0 0.0 0.0 0.00 0.00 0.00 75 1014.4
20260505214457 16 0 0.0 0.0 0.00 0.00 0.00 74 1014.5
20260505213957 16 0 0.0 0.0 0.00 0.00 0.00 74 1014.4
20260505213457 16 0 0.0 0.0 0.00 0.00 0.00 74 1014.4
20260505212457 16 0 0.0 0.0 0.00 0.00 0.00 74 1014.4
20260505211957 16 0 0.0 0.0 0.00 0.00 0.00 74 1014.4
20260505210958 16 0 0.0 0.0 0.00 0.00 0.00 72 1014.3
20260505205957 16 0 0.0 0.0 0.00 0.00 0.00 72 1014.2
20260505204957 16 0 0.0 0.0 0.00 0.00 0.00 73 1014.1
20260505204458 16 0 0.0 0.0 0.00 0.00 0.00 72 1014.1
20260505203957 16 0 0.0 0.0 0.00 0.00 0.00 73 1014.1
20260505203458 16 0 0.0 0.0 0.00 0.00 0.00 73 1014.0
20260505202458 16 0 0.0 0.0 0.00 0.00 0.00 73 1014.0
20260505195957 16 244 0.0 11.3 0.00 0.00 0.00 72 1013.9
20260505195458 16 251 0.0 11.3 0.00 0.00 0.00 71 1013.8
20260505194958 16 0 0.0 0.0 0.00 0.00 0.00 71 1013.8
20260505194458 16 0 0.0 0.0 0.00 0.00 0.00 71 1013.8
20260505193957 16 0 0.0 0.0 0.00 0.00 0.00 70 1013.8
20260505193458 16 0 0.0 0.0 0.00 0.00 0.00 70 1013.8
20260505192957 16 0 0.0 0.0 0.00 0.00 0.00 70 1013.8
20260505192457 16 0 0.0 0.0 0.00 0.00 0.00 70 1013.8
20260505191958 16 0 0.0 0.0 0.00 0.00 0.00 70 1013.7
20260505191458 16 0 0.0 0.0 0.00 0.00 0.00 70 1013.8
20260505190958 16 0 0.0 0.0 0.00 0.00 0.00 71 1013.8